Torna al catalogo

THORAD AGENA D DEB

AttivoLEO
NORAD 4145·DEBRIS·🇺🇸 United States

Lanciato Sep 30, 1969 da Vandenberg Space Force Base

Loading…

Prossimi Passaggi (prossime 24 ore)

TLE

AggiornatoSource: Space-Track

Epoca: Sep 14, 2026, 20:50 UTC

1 04145U 69082P   26257.86816185 -.00000229  00000-0 -94452-4 0  9997
2 04145  70.0585 311.4218 0058043 139.8556 220.6869 14.11768301930386

Traccia THORAD AGENA D DEB in tempo reale con AllMySat

Download on the App Store